Location: Madrid
(40.4000°N, 3.6830°W)
Time: 19:17:51
(UTC+02:00)

ISS - Pass Details

Date: 18 March 2018
Orbit: 403 x 408 km, 51.6° (Epoch: 21 September)

Event Time Altitude Azimuth Distance (km) Brightness Sun altitude
Exits shadow 05:08:48 28° 47° (NE) 808 -1.8 -25.6°
Drops below altitude 10° 05:11:14 10° 91° (E) 1,481 -0.1 -25.1°
Sets 05:13:28 0° 102° (ESE) 2,336 0.9 -24.8°
